"Pseudo-MPEC" for ZT18999

Created 2018 Oct 12 20:18:22 UT using Find_Orb

Click here for an explanation of pseudo-MPECs

 
 Astrometry: 
     ZT18999  C2018 10 06.32974 02 40 45.16 -18 56 14.9          20.5 GVNEOCP703
     ZT18999  C2018 10 06.34021 02 40 44.34 -18 56 14.2          19.7 GVNEOCP703
     ZT18999  C2018 10 06.34545 02 40 43.92 -18 56 12.0          21.1 GVNEOCP703
     ZT18999  C2018 10 10.32082 02 35 00.95 -18 35 19.6                VNEOCP703
     ZT18999  C2018 10 10.32610 02 35 00.32 -18 35 19.0          19.4 GVNEOCP703
     ZT18999  C2018 10 10.33138 02 34 59.81 -18 35 15.9          20.2 GVNEOCP703
     ZT18999  C2018 10 10.33666 02 34 59.17 -18 35 14.6          20.1 GVNEOCP703
     ZT18999  C2018 10 10.46043 02 34 47.59 -18 34 28.0          20.0 GVNEOCPI52
     ZT18999  C2018 10 10.46327 02 34 47.31 -18 34 27.5          20.6 GVNEOCPI52
     ZT18999  C2018 10 10.46611 02 34 47.06 -18 34 26.1          19.8 GVNEOCPI52
     ZT18999  C2018 10 10.46895 02 34 46.78 -18 34 25.3          20.0 GVNEOCPI52
     ZT18999  C2018 10 11C!Astrometry,qU[h?Sdlux1A`WJZgl'oYWa)C/5fdB7?WY_dw+_V06
     ZT18999  C2018 10 11v=?=WPAk3L3F*tP']?GH;^As=]nfwj]pa:G),ep2R=pGwc@D16\SV06
     ZT18999  C2018 10 11/S3FHywl\HTQo]74-redacted;I@J@FK=clu\x(k,;kToCF+k\:7V06
     ZT18999  C2018 10 11s(EwHI=HO41u*`W]hi*GCSjC^5xAO5nW4kY8b'gQmb[Ssvu-B*3gV06
     ZT18999 KC2018 10 11NqLl,;;=*,QBI2c%%[3xT/s;ioF6NM9Tsee@yo[SAmuj^D_=Zr;4L01
     ZT18999 KC2018 10 11'hOp8OLN#A1t@[U74P^dud?$@yv[gXJ=(FUj$/25),p8C+h\IcK]L01
     ZT18999 KC2018 10 11$k6UM$3QuomAJ7E3#[0+T-jwi9:jeQnVhI]l6hg,5.0MTxPNEOCPL01

Station data:
(703) Catalina Sky Survey  (N32.417006 W110.732640)  US/Arizona.  Observers
   B. M. Africano, E. J. Christensen, D. C. Fuls, A. R. Gibbs, A. D. Grauer,
   J. A. Johnson, R. A. Kowalski, S. M. Larson, G. J. Leonard, R. L. Seaman,
   F. C. Shelly. 0.68 m Schmidt + 10K CCD.
(I52) Steward Observatory, Mt. Lemmon Station  (N32.442547 W110.788920)
   US/Arizona.  Observers B. M. Africano, E. J. Christensen, D. C. Fuls, A.
   R. Gibbs, A. D. Grauer, J. A. Johnson, R. A. Kowalski, S. M. Larson, G. J.
   Leonard, R. L. Seaman, F. C. Shelly. 1.0-m reflector + CCD.
(L01) Višnjan Observatory, Tičan  (N45.290900 E13.749300)  Croatia.  Observer
   K. Korlević. 1.0-m f/2.9 reflector + CCD.
(V06) Catalina Sky Survey-Kuiper  (N32.416847 W110.732550)  US/Arizona.
   Observers B. M. Africano, E. J. Christensen, D. C. Fuls, A. R. Gibbs, A.
   D. Grauer, J. A. Johnson, R. A. Kowalski, S. M. Larson, G. J. Leonard, R.
   L. Seaman, F. C. Shelly. 1.55-m reflector + CCD.

Orbital elements:  ZT18999
   Perihelion 2018 Aug 31.965189 +/- 8.15 TT = 23:09:52 (JD 2458362.465189)
Epoch 2018 Oct 11.0 TT = JDT 2458402.5   Earth MOID: 0.7772   AutoNEOCP
M  15.07970 +/- 3.1                 (J2000 ecliptic)
n   0.37666492 +/- 0.00288          Peri.  302.67097 +/- 4.2
a   1.89888760 +/- 0.00969          Node    58.95496 +/- 0.37
e   0.0952335 +/- 0.00211           Incl.   22.88335 +/- 0.33
P   2.62/955.74d           H 18.7   G  0.15   U  8.8  
q 1.71804970 +/- 0.0122    Q 2.07972550 +/- 0.00763
From 18 observations 2018 Oct. 6-11; mean residual 0".63
Residuals in arcseconds: 
181006 703  .80-  1.0+    181010 703  2.3-  .15+    181011 V06  .42+  .35-    
181006 703  .23+  .94-    181010 I52  .20+  .01-    181011 V06  .14+  .02+    
181006 703  .61+  .08-    181010 I52  .04+  .61-    181011 V06  .13+  .10-    
181010 703  1.7+  .98+    181010 I52  .30+  .31-    181011 L01  .12-  .31+    
181010 703  .17-  .36-    181010 I52  .13+  .61-    181011 L01  .21-  .21+    
181010 703  .29-  .80+    181011 V06  .01+  .03-    181011 L01  .02+  .15-    

Ephemerides (geocentric):
Date (UTC) HH   RA              Dec         delta   r     elong  mag " sig PA
---- -- -- --  -------------   -----------  ------ ------ -----  --- ---- ---
2018 10 12 20  02 31 05.827   -18 18 03.02  .79944 1.7263 147.5 20.4  .80  10
2018 10 12 21  02 31 01.830   -18 17 44.31  .79935 1.7263 147.5 20.4  .82  10
2018 10 12 22  02 30 57.830   -18 17 25.55  .79927 1.7264 147.5 20.4  .84  10
2018 10 12 23  02 30 53.827   -18 17 06.74  .79919 1.7264 147.5 20.4  .86  11
2018 10 13 00  02 30 49.821   -18 16 47.88  .79911 1.7264 147.6 20.4  .89  11
2018 10 13 01  02 30 45.812   -18 16 28.95  .79902 1.7264 147.6 20.4  .91  11
2018 10 13 02  02 30 41.800   -18 16 09.98  .79894 1.7264 147.6 20.4  .93  11
2018 10 13 03  02 30 37.784   -18 15 50.95  .79886 1.7264 147.6 20.4  .96  12
2018 10 13 04  02 30 33.766   -18 15 31.86  .79878 1.7265 147.7 20.4  .98  12
2018 10 13 05  02 30 29.745   -18 15 12.72  .79870 1.7265 147.7 20.4  1.0  12
2018 10 13 06  02 30 25.720   -18 14 53.53  .79862 1.7265 147.7 20.4  1.0  12
2018 10 13 07  02 30 21.693   -18 14 34.28  .79854 1.7265 147.7 20.4  1.1  12
2018 10 13 08  02 30 17.662   -18 14 14.98  .79846 1.7265 147.8 20.4  1.1  13
2018 10 13 09  02 30 13.628   -18 13 55.62  .79838 1.7265 147.8 20.4  1.1  13
2018 10 13 10  02 30 09.592   -18 13 36.21  .79830 1.7266 147.8 20.4  1.1  13
2018 10 13 11  02 30 05.552   -18 13 16.74  .79823 1.7266 147.8 20.4  1.2  13
2018 10 13 12  02 30 01.510   -18 12 57.22  .79815 1.7266 147.9 20.4  1.2  13
2018 10 13 13  02 29 57.464   -18 12 37.64  .79807 1.7266 147.9 20.4  1.2  13
2018 10 13 14  02 29 53.416   -18 12 18.01  .79799 1.7266 147.9 20.4  1.2  14
2018 10 13 15  02 29 49.364   -18 11 58.33  .79792 1.7266 147.9 20.4  1.3  14
2018 10 13 16  02 29 45.310   -18 11 38.59  .79784 1.7267 148.0 20.4  1.3  14
2018 10 13 17  02 29 41.253   -18 11 18.79  .79776 1.7267 148.0 20.4  1.3  14
2018 10 13 18  02 29 37.193   -18 10 58.94  .79769 1.7267 148.0 20.4  1.3  14
2018 10 13 19  02 29 33.130   -18 10 39.03  .79761 1.7267 148.0 20.4  1.4  15
2018 10 13 20  02 29 29.064   -18 10 19.07  .79754 1.7267 148.0 20.4  1.4  15
2018 10 13 21  02 29 24.995   -18 09 59.06  .79746 1.7267 148.1 20.4  1.4  15
2018 10 13 22  02 29 20.923   -18 09 38.99  .79739 1.7268 148.1 20.4  1.5  15
2018 10 13 23  02 29 16.848   -18 09 18.86  .79731 1.7268 148.1 20.4  1.5  15
2018 10 14 00  02 29 12.771   -18 08 58.68  .79724 1.7268 148.1 20.4  1.5  15
2018 10 14 01  02 29 08.691   -18 08 38.44  .79716 1.7268 148.2 20.3  1.5  16
2018 10 14 02  02 29 04.608   -18 08 18.15  .79709 1.7268 148.2 20.3  1.6  16
2018 10 14 03  02 29 00.522   -18 07 57.80  .79702 1.7268 148.2 20.3  1.6  16
2018 10 14 04  02 28 56.433   -18 07 37.40  .79695 1.7269 148.2 20.3  1.6  16
2018 10 14 05  02 28 52.341   -18 07 16.94  .79687 1.7269 148.3 20.3  1.7  16
2018 10 14 06  02 28 48.247   -18 06 56.43  .79680 1.7269 148.3 20.3  1.7  16
2018 10 14 07  02 28 44.150   -18 06 35.86  .79673 1.7269 148.3 20.3  1.7  17
2018 10 14 08  02 28 40.050   -18 06 15.24  .79666 1.7269 148.3 20.3  1.8  17
2018 10 14 09  02 28 35.948   -18 05 54.56  .79659 1.7269 148.3 20.3  1.8  17
2018 10 14 10  02 28 31.842   -18 05 33.83  .79652 1.7270 148.4 20.3  1.8  17
2018 10 14 11  02 28 27.734   -18 05 13.04  .79645 1.7270 148.4 20.3  1.9  17
2018 10 14 12  02 28 23.623   -18 04 52.19  .79638 1.7270 148.4 20.3  1.9  17
2018 10 14 13  02 28 19.510   -18 04 31.29  .79631 1.7270 148.4 20.3  1.9  18
2018 10 14 14  02 28 15.394   -18 04 10.33  .79624 1.7270 148.5 20.3  2.0  18
2018 10 14 15  02 28 11.275   -18 03 49.32  .79617 1.7270 148.5 20.3  2.0  18
2018 10 14 16  02 28 07.153   -18 03 28.25  .79610 1.7271 148.5 20.3  2.0  18
2018 10 14 17  02 28 03.029   -18 03 07.13  .79604 1.7271 148.5 20.3  2.1  18
2018 10 14 18  02 27 58.902   -18 02 45.95  .79597 1.7271 148.5 20.3  2.1  18
2018 10 14 19  02 27 54.773   -18 02 24.72  .79590 1.7271 148.6 20.3  2.1  19